TimeEDT,TemperatureF,Dew PointF,Humidity,Sea Level PressureIn,VisibilityMPH,Wind Direction,Wind SpeedMPH,Gust SpeedMPH,PrecipitationIn,Events,Conditions,WindDirDegrees,DateUTC
12:15 AM,37.4,32.0,81,30.32,10.0,South,8.1,-,N/A,,Overcast,170,2013-03-11 04:15:00
1:15 AM,37.4,32.0,81,30.32,10.0,SSW,5.8,-,N/A,,Overcast,210,2013-03-11 05:15:00
1:35 AM,37.4,33.8,87,30.33,10.0,SSW,5.8,-,N/A,,Overcast,210,2013-03-11 05:35:00
1:55 AM,37.4,32.0,81,30.33,10.0,SW,8.1,-,N/A,,Overcast,220,2013-03-11 05:55:00
2:15 AM,37.4,32.0,81,30.32,10.0,SSW,10.4,-,N/A,,Overcast,200,2013-03-11 06:15:00
2:35 AM,37.4,32.0,81,30.32,10.0,SSW,11.5,-,N/A,,Overcast,200,2013-03-11 06:35:00
3:15 AM,35.6,30.2,81,30.30,10.0,Calm,Calm,-,N/A,,Scattered Clouds,0,2013-03-11 07:15:00
3:35 AM,35.6,30.2,81,30.29,10.0,Calm,Calm,-,N/A,,Clear,0,2013-03-11 07:35:00
3:55 AM,35.6,30.2,81,30.28,8.0,South,3.5,-,N/A,,Clear,190,2013-03-11 07:55:00
4:15 AM,35.6,30.2,81,30.28,8.0,Calm,Calm,-,N/A,,Clear,0,2013-03-11 08:15:00
4:35 AM,33.8,30.2,87,30.27,7.0,Calm,Calm,-,N/A,,Clear,0,2013-03-11 08:35:00
4:55 AM,33.8,30.2,87,30.28,7.0,Calm,Calm,-,N/A,,Scattered Clouds,0,2013-03-11 08:55:00
5:15 AM,32.0,30.2,93,30.28,5.0,Calm,Calm,-,N/A,,Overcast,0,2013-03-11 09:15:00
5:35 AM,33.8,28.4,81,30.28,5.0,Calm,Calm,-,N/A,,Overcast,0,2013-03-11 09:35:00
5:55 AM,33.8,30.2,87,30.28,4.0,SSE,3.5,-,N/A,,Mostly Cloudy,160,2013-03-11 09:55:00
6:15 AM,33.8,28.4,81,30.28,4.0,Calm,Calm,-,N/A,,Clear,0,2013-03-11 10:15:00
6:35 AM,33.8,30.2,87,30.29,4.0,Calm,Calm,-,N/A,,Clear,0,2013-03-11 10:35:00
6:55 AM,33.8,30.2,87,30.29,4.0,Calm,Calm,-,N/A,,Clear,0,2013-03-11 10:55:00
7:15 AM,33.8,33.8,100,30.28,3.0,South,4.6,-,N/A,,Clear,170,2013-03-11 11:15:00
7:35 AM,35.6,32.0,87,30.28,5.0,South,5.8,-,N/A,,Clear,170,2013-03-11 11:35:00
7:55 AM,37.4,33.8,87,30.27,7.0,SSE,5.8,-,N/A,,Clear,160,2013-03-11 11:55:00
8:15 AM,37.4,35.6,93,30.28,8.0,SSE,5.8,-,N/A,,Clear,150,2013-03-11 12:15:00
8:35 AM,39.2,35.6,87,30.28,8.0,SSE,5.8,-,N/A,,Clear,150,2013-03-11 12:35:00
8:55 AM,39.2,35.6,87,30.27,9.0,SSE,9.2,-,N/A,,Clear,160,2013-03-11 12:55:00
9:15 AM,41.0,35.6,81,30.27,10.0,SSE,8.1,-,N/A,,Clear,160,2013-03-11 13:15:00
9:35 AM,42.8,37.4,81,30.27,10.0,SSE,10.4,-,N/A,,Clear,160,2013-03-11 13:35:00
10:15 AM,42.8,37.4,81,30.28,10.0,South,10.4,-,N/A,,Scattered Clouds,170,2013-03-11 14:15:00
10:35 AM,44.6,37.4,76,30.28,10.0,South,9.2,-,N/A,,Overcast,180,2013-03-11 14:35:00
10:55 AM,44.6,37.4,76,30.30,10.0,South,9.2,-,N/A,,Overcast,190,2013-03-11 14:55:00
11:15 AM,42.8,37.4,81,30.29,10.0,South,10.4,-,N/A,,Overcast,190,2013-03-11 15:15:00
11:35 AM,44.6,39.2,81,30.29,10.0,South,10.4,-,N/A,,Overcast,170,2013-03-11 15:35:00
11:55 AM,44.6,37.4,76,30.29,10.0,South,10.4,-,N/A,,Overcast,180,2013-03-11 15:55:00
12:15 PM,44.6,37.4,76,30.29,10.0,South,10.4,-,N/A,,Overcast,170,2013-03-11 16:15:00
12:35 PM,44.6,39.2,81,30.28,10.0,South,9.2,-,N/A,,Overcast,170,2013-03-11 16:35:00
12:55 PM,44.6,39.2,81,30.28,10.0,South,10.4,-,N/A,,Overcast,180,2013-03-11 16:55:00
1:15 PM,44.6,39.2,81,30.27,10.0,South,10.4,-,N/A,,Overcast,170,2013-03-11 17:15:00
1:35 PM,46.4,39.2,76,30.26,10.0,South,12.7,-,N/A,,Overcast,170,2013-03-11 17:35:00
1:55 PM,46.4,39.2,76,30.25,10.0,SSE,12.7,-,N/A,,Overcast,160,2013-03-11 17:55:00
2:15 PM,46.4,39.2,76,30.25,10.0,South,9.2,-,N/A,,Overcast,170,2013-03-11 18:15:00
2:35 PM,46.4,39.2,76,30.25,10.0,South,10.4,-,N/A,,Overcast,170,2013-03-11 18:35:00
2:55 PM,46.4,39.2,76,30.24,10.0,South,12.7,-,N/A,,Overcast,170,2013-03-11 18:55:00
3:15 PM,46.4,39.2,76,30.24,10.0,SSE,11.5,-,N/A,,Mostly Cloudy,160,2013-03-11 19:15:00
3:35 PM,46.4,39.2,76,30.24,10.0,SSE,10.4,-,N/A,,Overcast,150,2013-03-11 19:35:00
3:55 PM,46.4,39.2,76,30.23,10.0,SSE,12.7,-,N/A,,Overcast,150,2013-03-11 19:55:00
4:15 PM,44.6,39.2,81,30.23,10.0,SSE,10.4,-,N/A,,Overcast,150,2013-03-11 20:15:00
4:35 PM,44.6,39.2,81,30.22,10.0,SSE,11.5,-,N/A,,Overcast,160,2013-03-11 20:35:00
4:55 PM,44.6,39.2,81,30.22,10.0,SSE,11.5,-,N/A,,Overcast,150,2013-03-11 20:55:00
5:15 PM,44.6,39.2,81,30.21,10.0,SSE,10.4,-,N/A,,Overcast,150,2013-03-11 21:15:00
5:35 PM,44.6,39.2,81,30.21,10.0,SSE,9.2,-,N/A,,Overcast,150,2013-03-11 21:35:00
5:55 PM,44.6,39.2,81,30.21,10.0,SSE,9.2,-,N/A,,Partly Cloudy,150,2013-03-11 21:55:00
6:15 PM,42.8,39.2,87,30.21,9.0,SSE,9.2,-,N/A,,Clear,160,2013-03-11 22:15:00
6:35 PM,42.8,39.2,87,30.21,10.0,SSE,10.4,-,N/A,,Mostly Cloudy,160,2013-03-11 22:35:00
6:55 PM,42.8,39.2,87,30.20,9.0,SSE,10.4,-,N/A,,Overcast,160,2013-03-11 22:55:00
7:15 PM,42.8,39.2,87,30.20,10.0,SSE,11.5,-,N/A,,Partly Cloudy,150,2013-03-11 23:15:00
7:35 PM,42.8,39.2,87,30.19,10.0,SSE,12.7,-,N/A,,Clear,150,2013-03-11 23:35:00
7:55 PM,42.8,39.2,87,30.19,10.0,SSE,11.5,-,N/A,,Clear,150,2013-03-11 23:55:00
8:15 PM,42.8,39.2,87,30.19,10.0,SSE,11.5,-,N/A,,Clear,150,2013-03-12 00:15:00
8:35 PM,42.8,39.2,87,30.19,10.0,SSE,10.4,-,N/A,,Clear,150,2013-03-12 00:35:00
8:55 PM,42.8,39.2,87,30.19,10.0,SSE,10.4,-,N/A,,Clear,150,2013-03-12 00:55:00
9:15 PM,42.8,39.2,87,30.18,10.0,SSE,11.5,-,N/A,,Clear,160,2013-03-12 01:15:00
9:35 PM,44.6,41.0,87,30.18,10.0,SSE,12.7,-,N/A,,Clear,160,2013-03-12 01:35:00
9:55 PM,44.6,41.0,87,30.17,10.0,SSE,11.5,-,N/A,,Clear,160,2013-03-12 01:55:00
10:35 PM,44.6,41.0,87,30.17,10.0,SSE,10.4,-,N/A,,Clear,160,2013-03-12 02:35:00
10:55 PM,44.6,41.0,87,30.17,10.0,South,10.4,-,N/A,,Clear,170,2013-03-12 02:55:00
11:15 PM,44.6,39.2,81,30.18,9.0,South,8.1,-,N/A,,Clear,180,2013-03-12 03:15:00
11:35 PM,44.6,41.0,87,30.18,10.0,South,9.2,-,N/A,,Clear,180,2013-03-12 03:35:00
11:55 PM,44.6,41.0,87,30.16,10.0,South,9.2,-,N/A,,Clear,180,2013-03-12 03:55:00